Wind_Speed
9 11 10 11 9 9 8 6 3 1 3 4 5 3 4 6 7 6 6 5 6 5 7 8 10 10 9 10 12 12 12 11 10 9 8 5 5 4 2 3 4 4 4
8 10 11 11 11 9 8 7 3 2 3 3 3 5 5 6 8 7 7 7 5 5 8 8 10 11 10 11 12 12 11 10 10 9 7 8 4 3 5 6 4 4 3
7 10 10 11 11 9 11 8 4 4 3 2 3 4 5 7 7 8 8 7 5 7 7 7 10 10 11 12 11 12 12 11 10 9 6 6 6 7 8 7 7 5 3
8 9 11 11 7 9 11 10 6 4 1 2 2 6 6 8 7 8 9 6 6 6 6 7 9 10 11 13 12 13 11 11 11 11 10 8 9 9 9 6 7 6 5
7 10 13 12 8 8 12 12 8 3 2 1 2 7 5 6 8 8 7 5 4 5 6 8 7 10 12 12 12 13 13 16 14 15 12 10 9 7 6 6 7 8 8
8 7 14 12 9 9 11 11 12 5 4 5 4 5 5 6 8 7 5 4 4 7 8 8 9 13 12 13 13 14 18 19 22 18 13 11 13 13 8 6 8 8 10
10 10 12 12 12 13 8 9 14 10 4 6 6 9 7 6 8 7 4 4 5 8 8 9 12 12 12 12 15 19 20 20 18 16 16 13 17 16 11 10 8 8 9
12 13 13 12 11 12 10 9 11 8 6 8 10 9 7 7 7 7 3 3 6 9 8 9 11 10 11 13 17 19 17 17 16 14 14 15 10 18 17 12 11 9 11
11 11 12 10 11 14 11 10 9 10 6 11 14 10 10 8 6 6 3 3 6 8 8 10 9 10 11 14 14 16 17 16 16 14 13 11 10 12 20 15 8 10 10
9 11 13 11 10 15 13 10 8 6 10 14 14 11 9 9 6 5 4 3 6 7 6 9 8 11 12 13 13 17 18 16 12 13 13 11 10 14 16 9 14 6 12
9 10 14 14 14 15 12 9 7 10 9 16 12 11 11 10 7 4 3 4 7 5 4 7 6 9 12 12 9 10 13 14 11 9 13 13 11 12 11 15 8 9 6
7 5 15 17 17 17 13 10 10 11 13 14 12 12 14 10 9 7 5 6 8 4 3 5 4 7 9 8 7 9 10 14 13 10 10 10 10 14 14 13 12 13 10
10 11 16 13 14 14 16 14 14 11 14 12 12 12 16 13 11 9 6 5 8 5 3 3 4 5 7 8 10 11 12 10 13 14 13 11 12 15 18 12 14 15 14
12 14 18 16 14 15 18 17 13 15 13 10 13 15 17 15 13 9 6 4 8 5 4 5 5 7 8 10 10 13 12 12 13 12 10 12 17 19 19 18 19 17 16
13 12 11 12 13 13 16 20 16 16 15 13 19 21 17 15 13 10 6 5 8 7 3 4 4 5 7 10 11 14 16 10 11 12 13 16 20 21 20 19 18 17 17
12 12 13 13 14 14 14 13 12 13 17 17 18 18 16 15 16 10 8 7 7 7 5 4 4 5 7 9 8 10 10 9 7 9 10 14 16 18 19 20 19 20 18
9 14 13 14 14 14 13 9 11 17 17 19 18 19 18 19 18 13 8 8 8 5 6 4 5 4 6 5 6 9 7 4 4 8 8 11 14 14 15 19 20 20 19
7 9 9 13 16 16 14 10 9 10 16 22 20 22 22 19 17 12 9 6 10 7 4 6 5 5 3 1 1 2 4 2 0 8 6 8 11 13 15 16 18 20 18
9 11 11 12 15 15 15 11 9 17 20 19 17 21 21 18 16 13 12 12 9 7 2 4 5 5 2 3 4 5 5 3 5 7 10 6 10 11 12 17 17 17 16
8 13 12 11 11 12 12 14 12 15 14 17 19 24 22 19 17 14 11 11 10 9 6 4 3 2 4 4 2 3 4 5 2 6 8 9 10 13 12 12 13 13 13
6 11 14 12 13 15 15 14 15 15 15 18 24 22 16 16 18 16 11 7 14 10 10 6 6 6 4 2 1 1 2 8 3 5 8 10 10 11 13 14 12 13 9
8 9 11 12 14 13 15 13 13 16 16 13 15 16 16 16 14 14 13 12 11 11 9 9 10 8 5 4 1 2 2 6 7 4 5 5 9 10 8 12 10 11 8
8 10 11 11 14 15 15 13 14 14 13 15 15 15 16 14 13 11 16 15 12 11 12 11 8 8 6 5 3 2 2 4 5 2 4 4 6 9 10 8 8 7 6
9 9 11 12 11 15 16 16 16 18 16 15 16 17 17 14 14 14 16 17 13 13 14 13 10 9 8 7 4 4 3 1 1 5 3 4 6 10 11 10 7 5 4
11 9 9 12 13 15 17 16 16 17 17 15 15 15 15 14 14 15 18 18 16 14 13 13 12 11 10 10 8 7 5 3 2 2 4 2 4 6 9 11 7 5 5
13 11 9 9 11 12 14 16 17 16 15 15 15 16 17 17 18 18 18 18 16 14 15 15 15 13 11 10 10 8 8 8 4 3 2 3 3 4 5 8 5 5 6
Wind_Direction
218 217 228 200 196 200 193 176 155 112 51 39 51 78 113 88 92 77 82 92 96 88 73 65 70 76 71 73 80 83 86 80 76 75 73 73 57 107 85 76 103 118 118
216 219 221 212 205 208 207 190 197 267 35 29 65 80 91 89 100 100 100 106 107 80 62 58 66 67 76 70 67 66 64 65 58 53 49 45 30 51 59 62 65 81 120
220 220 215 212 211 215 225 216 221 248 18 63 104 88 109 104 110 107 112 116 89 72 55 50 66 67 75 79 72 65 59 56 52 49 41 52 42 50 62 58 51 48 70
214 215 211 206 216 217 221 214 222 202 54 96 133 107 98 107 106 106 115 111 87 63 61 58 61 74 75 71 70 74 73 69 59 49 37 42 43 46 51 55 69 64 66
202 196 203 199 205 209 204 195 201 189 213 144 114 115 102 109 112 106 119 101 76 61 62 56 61 74 73 75 75 78 74 60 48 43 29 27 38 44 59 60 69 74 75
197 181 185 190 192 165 165 193 195 219 250 214 177 156 126 128 125 116 123 86 64 58 56 51 60 68 69 70 66 59 62 62 49 41 32 34 43 36 35 71 73 82 79
185 168 178 181 186 174 160 198 212 215 202 193 182 158 154 151 136 135 125 84 68 69 57 59 70 69 67 65 65 67 63 61 60 46 42 41 62 42 51 88 75 67 45
181 174 166 178 183 193 205 193 181 173 187 174 163 162 169 169 152 141 130 83 73 70 66 75 84 74 68 71 72 74 65 51 57 41 46 46 58 60 75 77 80 68 42
171 171 176 175 189 179 183 166 170 165 185 182 166 171 178 182 164 146 131 82 79 71 77 84 84 74 70 73 72 74 61 55 49 39 37 44 47 58 56 55 82 64 46
184 181 183 184 181 181 171 173 158 171 160 163 163 180 186 187 173 167 127 106 87 82 85 97 88 82 76 74 68 64 56 51 46 43 44 43 43 47 66 57 53 27 27
189 202 202 192 175 170 166 167 158 165 175 168 164 179 184 183 170 169 133 144 106 99 101 109 103 91 81 76 68 58 44 37 41 37 38 34 45 64 61 48 29 13 26
143 140 178 187 175 180 173 168 162 181 171 174 173 187 185 181 179 164 192 163 119 105 100 112 111 97 89 79 54 43 36 22 39 39 39 37 43 53 49 55 47 49 44
175 141 145 158 169 171 180 172 179 199 187 183 180 191 186 187 184 176 195 180 121 108 108 83 81 62 60 54 43 41 41 33 33 42 47 42 51 58 70 33 40 39 39
141 133 150 158 165 171 175 171 192 185 189 189 203 161 172 187 180 190 177 195 129 106 81 68 54 51 45 40 44 34 38 44 38 50 45 51 46 45 46 45 41 38 36
146 151 155 165 172 186 189 194 197 199 185 174 156 170 177 183 182 192 167 192 150 125 103 97 85 50 43 39 37 28 20 25 32 37 33 44 40 38 36 37 40 36 34
165 173 171 172 180 177 192 203 205 182 178 179 181 178 177 181 187 190 177 191 175 136 109 86 78 61 40 41 27 30 8 355 352 22 20 41 40 36 34 29 37 40 49
174 178 187 172 175 184 185 190 213 210 202 188 185 183 187 193 190 184 185 187 182 183 134 124 102 76 64 44 31 19 10 339 338 15 32 33 35 32 37 31 27 42 44
195 196 189 195 192 190 195 217 231 203 186 188 192 194 190 193 203 177 193 207 185 184 179 146 126 106 73 45 150 115 21 11 350 34 40 9 38 29 29 41 29 30 41
171 193 195 199 196 201 202 214 211 186 199 191 209 187 190 190 201 195 197 200 198 176 199 156 148 147 118 241 294 67 80 27 326 29 37 21 10 20 42 36 37 38 29
169 178 188 189 196 194 199 195 185 195 194 196 198 190 190 187 200 212 222 189 201 190 156 160 122 193 204 215 288 31 48 346 318 12 23 23 16 18 29 23 46 40 36
174 183 185 192 202 191 175 177 178 187 188 178 180 182 198 200 205 205 216 201 207 211 177 196 175 216 211 212 282 165 348 6 93 25 12 15 357 358 16 25 34 43 46
168 192 185 186 184 187 178 177 170 176 175 173 176 178 197 207 213 213 223 229 223 216 184 182 183 192 203 214 304 265 304 60 97 58 335 323 350 6 20 32 16 39 44
168 187 184 185 191 187 178 171 168 171 174 174 182 192 203 199 204 224 231 232 239 212 200 202 199 207 208 227 235 241 303 81 105 133 28 348 23 7 13 19 12 25 37
196 190 189 184 192 196 186 180 183 179 190 195 187 191 203 212 215 224 227 240 233 226 203 202 201 210 232 243 268 185 238 35 31 139 42 17 17 12 2 12 355 349 16
205 208 207 184 192 192 196 201 200 191 190 195 202 192 184 201 224 228 231 234 233 229 219 208 210 216 221 235 245 243 241 264 309 6 69 9 345 8 356 346 356 351 352
205 202 217 208 191 198 200 202 206 208 213 217 213 213 206 205 216 219 220 233 240 239 232 225 222 223 227 238 244 248 250 250 265 273 285 255 287 316 329 329 341 340 322
Height
5878 5880 5881 5883 5887 5889 5892 5894 5894 5894 5896 5898 5899 5899 5899 5899 5898 5897 5896 5896 5894 5894 5894 5894 5893 5892 5890 5889 5889 5888 5888 5889 5888 5888 5887 5887 5886 5886 5886 5885 5884 5883 5882
5878 5879 5881 5882 5885 5889 5891 5893 5894 5895 5896 5898 5899 5899 5899 5900 5899 5899 5898 5898 5896 5895 5895 5895 5893 5893 5893 5890 5889 5889 5889 5890 5889 5888 5888 5887 5887 5887 5887 5885 5884 5883 5882
5878 5879 5880 5882 5884 5888 5891 5893 5895 5896 5896 5897 5900 5900 5900 5901 5901 5901 5901 5899 5898 5898 5896 5895 5896 5895 5895 5893 5892 5892 5891 5890 5890 5889 5889 5888 5887 5886 5885 5883 5882 5882 5882
5877 5879 5880 5881 5884 5887 5889 5892 5894 5896 5897 5897 5899 5900 5902 5902 5902 5902 5902 5901 5900 5900 5898 5897 5898 5898 5897 5896 5895 5894 5894 5892 5892 5891 5889 5887 5886 5885 5883 5881 5882 5882 5882
5877 5878 5879 5881 5883 5885 5888 5892 5893 5895 5896 5897 5898 5900 5902 5903 5903 5903 5903 5902 5902 5902 5900 5900 5899 5899 5898 5898 5896 5896 5896 5893 5891 5889 5886 5886 5885 5883 5882 5882 5882 5882 5881
5876 5878 5879 5881 5883 5885 5887 5891 5893 5895 5896 5897 5898 5900 5902 5903 5903 5903 5903 5903 5903 5903 5902 5903 5902 5901 5899 5899 5897 5897 5895 5892 5890 5889 5888 5887 5886 5884 5882 5882 5882 5882 5881
5876 5878 5879 5881 5883 5885 5887 5890 5892 5895 5896 5896 5899 5900 5902 5903 5904 5904 5904 5905 5905 5904 5904 5904 5904 5903 5902 5900 5899 5898 5896 5894 5892 5893 5892 5890 5889 5886 5883 5884 5884 5884 5883
5876 5878 5879 5881 5883 5886 5887 5889 5892 5894 5896 5897 5899 5901 5902 5904 5905 5905 5907 5908 5908 5907 5907 5907 5906 5905 5905 5904 5902 5901 5901 5899 5896 5895 5894 5894 5891 5888 5887 5887 5886 5885 5884
5876 5878 5879 5881 5883 5885 5888 5890 5892 5894 5896 5897 5899 5901 5903 5905 5906 5907 5909 5910 5911 5911 5911 5910 5909 5908 5909 5907 5906 5905 5903 5902 5899 5898 5898 5896 5895 5890 5889 5888 5888 5887 5886
5875 5877 5879 5880 5883 5885 5888 5890 5892 5894 5895 5898 5900 5901 5904 5906 5908 5909 5910 5912 5913 5914 5914 5912 5912 5912 5913 5912 5910 5907 5905 5904 5902 5902 5901 5900 5899 5896 5892 5890 5888 5890 5889
5874 5876 5877 5880 5882 5886 5888 5890 5892 5894 5896 5898 5900 5902 5905 5908 5909 5911 5912 5913 5914 5916 5916 5916 5915 5913 5913 5913 5912 5910 5909 5908 5907 5907 5905 5904 5901 5898 5897 5894 5893 5883 5887
5873 5873 5875 5879 5882 5885 5888 5890 5892 5895 5897 5899 5902 5903 5906 5909 5910 5911 5913 5914 5915 5917 5919 5919 5919 5918 5917 5916 5915 5913 5912 5910 5910 5909 5906 5905 5903 5901 5901 5899 5897 5895 5893
5874 5874 5876 5880 5882 5885 5888 5890 5892 5895 5897 5900 5902 5903 5906 5909 5911 5912 5914 5916 5917 5919 5921 5922 5923 5922 5921 5919 5918 5916 5914 5914 5911 5910 5910 5908 5905 5904 5905 5904 5898 5896 5894
5874 5876 5878 5881 5884 5886 5888 5890 5891 5894 5898 5900 5901 5904 5906 5909 5911 5914 5916 5918 5919 5921 5923 5925 5925 5924 5923 5922 5920 5920 5919 5917 5915 5914 5913 5910 5907 5905 5905 5904 5902 5899 5896
5875 5878 5880 5882 5884 5887 5889 5891 5893 5896 5898 5900 5900 5904 5905 5910 5912 5915 5917 5919 5921 5922 5924 5925 5926 5926 5925 5924 5923 5922 5923 5922 5919 5918 5917 5914 5910 5907 5906 5904 5903 5902 5900
5876 5878 5880 5882 5884 5886 5888 5890 5892 5894 5898 5900 5901 5905 5907 5911 5913 5915 5917 5919 5922 5923 5925 5926 5927 5928 5928 5927 5925 5924 5923 5924 5922 5920 5921 5917 5913 5910 5908 5906 5906 5904 5902
5878 5880 5881 5882 5884 5886 5887 5890 5891 5894 5897 5900 5902 5905 5907 5910 5910 5913 5917 5920 5922 5924 5925 5927 5927 5928 5929 5928 5925 5923 5924 5925 5923 5923 5923 5920 5916 5914 5912 5909 5906 5906 5905
5878 5879 5880 5882 5884 5886 5887 5888 5889 5891 5895 5898 5901 5904 5907 5909 5912 5914 5918 5920 5921 5924 5926 5926 5927 5927 5928 5928 5927 5925 5925 5926 5925 5923 5922 5921 5918 5916 5914 5912 5910 5907 5908
5877 5880 5881 5882 5883 5885 5886 5887 5890 5893 5895 5898 5901 5903 5906 5909 5913 5914 5918 5920 5921 5923 5926 5927 5927 5926 5927 5928 5928 5927 5927 5926 5924 5924 5922 5921 5921 5919 5917 5916 5914 5911 5911
5878 5879 5881 5883 5884 5884 5885 5887 5889 5892 5895 5897 5900 5902 5906 5908 5913 5916 5918 5920 5921 5922 5925 5926 5927 5927 5926 5927 5928 5927 5926 5926 5925 5924 5923 5922 5922 5921 5920 5919 5917 5916 5915
5878 5879 5881 5882 5884 5884 5885 5887 5889 5891 5894 5896 5899 5902 5907 5910 5914 5915 5918 5919 5921 5922 5923 5924 5925 5927 5927 5928 5927 5927 5926 5927 5925 5924 5923 5923 5923 5922 5921 5921 5919 5918 5918
5877 5879 5879 5880 5882 5885 5885 5887 5890 5892 5893 5897 5901 5904 5907 5911 5913 5915 5916 5919 5921 5921 5922 5924 5924 5926 5927 5927 5928 5928 5927 5928 5925 5925 5925 5925 5924 5923 5922 5920 5921 5920 5920
5877 5879 5879 5880 5881 5883 5885 5887 5890 5893 5896 5899 5902 5906 5907 5909 5912 5914 5915 5918 5920 5921 5922 5924 5924 5925 5926 5926 5927 5927 5928 5927 5926 5927 5926 5926 5925 5923 5922 5921 5921 5921 5922
5877 5878 5879 5880 5881 5883 5884 5886 5888 5891 5895 5897 5899 5903 5905 5907 5909 5912 5914 5916 5918 5920 5921 5923 5925 5926 5926 5926 5927 5926 5926 5926 5927 5928 5928 5926 5925 5922 5922 5921 5922 5922 5922
5877 5878 5879 5879 5881 5881 5883 5885 5887 5890 5893 5897 5899 5900 5902 5905 5907 5910 5912 5914 5916 5918 5920 5921 5922 5924 5925 5925 5926 5926 5925 5926 5927 5926 5926 5925 5924 5923 5922 5921 5923 5922 5921
5875 5877 5879 5879 5880 5881 5882 5884 5886 5887 5889 5893 5896 5898 5900 5902 5905 5908 5910 5911 5913 5914 5917 5919 5921 5922 5923 5925 5926 5926 5926 5926 5926 5925 5924 5924 5923 5922 5922 5921 5920 5920 5921